{"data":{"norad_id":65891,"epoch":"2026-09-20T01:24:03.233664Z","epoch_age_seconds":144359,"freshness":"FRESH","line1":"1 65891U 25224K   26263.05837076  .00023846  00000+0  71454-3 0  9995","line2":"2 65891  53.1588 187.7697 0001687  81.1372 278.9822 15.34404085 54641","mean_motion":15.34404085,"eccentricity":0.0001687,"inclination_deg":53.1588,"raan_deg":187.7697,"arg_perigee_deg":81.1372,"mean_anomaly_deg":278.9822,"bstar":0.00071454,"rev_number":5464,"period_min":93.847508233139,"perigee_km":461.53705105291,"apogee_km":463.84514645343,"semimajor_km":6840.8280987532,"source":"CELESTRAK","updated_at":"2026-09-21T09:00:35.758097Z"}}